DECAYED

STARLINK-4646, 53737 (Decayed)

Orbit data source: Space-Track

STARLINK-4646, 53737 was a payload satellite owned by SpaceX/Seattle (US) in LEO that was launched on Mon, 05 Sep 2022 UTC via an FALCON 9 launch vehicle from the Air Force Eastern Test Range (AFETR). Payload-class satellites include a variety of spacecraft equipped with specific instruments for various scientific and technological missions. These include communications satellites like Starlink; space stations such as the ISS; scientific satellites like the Hubble; Earth observation satellites from companies like Planet Labs, Umbra, and HawkEye 360; GPS; miniature CubeSats for education and research; and military/defense satellites.

Not visible in the next 10 days
Identifier
53737, 2022-107AP
Orbit
Decayed
Country
Flag of USUS
Related business
Manufacturer
SpaceX/Seattle
Mission
Decayed Commercial Communications
Bus & Motor
STARLINK, Unknown motor
Mass
305 kg wet, ~290 kg dry
Launch date (UTC)
2022-09-05 (4 years ago)
Launch vehicle
FALCON 9
Launch site
Air Force Eastern Test Range (AFETR)
Object type
Payload
Rocket body
Debris
Shape & HBR
Box + 1 Pan, 10.1 m
Radar Cross Section
13.562 m², Large (>1 m²)

Expand to show TLE details & history
Last TLE update: 4 months ago

TLE from 4 months ago
0 STARLINK-4646
1 53737U 22107AP  26041.14741529  .06303157  11852-4  22863-2 0  9992
2 53737  53.1732 312.3282 0007600 204.7574 155.3103 16.23989825191496
Epoch: 2026-02-10T03:32Z
TLE epoch observation values (Epoch: 2026-02-10T03:32:16.681Z)
Latitude
-0.00006°
Longitude
119.0266°
Altitude
214.228 km
Speed
7.777 km/s
True Right ascension
20h 49m 18s
True Declination
0° 00' 00"
Sunlit
Object was in daylight at epoch
Visualization orbit readout
Latitude
Unknown
Longitude
Unknown
Altitude
Unknown
Speed
Unknown
Apparent Right ascension
Unknown
Apparent Declination
Unknown
Sunlit
N/A
Visualization observer readout
Local Sidereal Time
21:28:34
Azimuth
Unknown
Elevation
Unknown
Doppler factor
Unknown
Orbital elements
Apogee altitude
214.012 km
Perigee altitude
203.999 km
Semi-major axis
6,587.143 km
Eccentricity
0.00076
Inclination
53.1732°
RAAN
312.3282°
Arg. of periapsis
204.7574°
True anomaly
155.34665°
Mean anomaly
155.3103°
Eccentric anomaly
155.32848°
Mean motion
4.05973 °/min
Orbital period
88.68 mins
BSTAR
0.0022863
Loading maneuver chart data...
Computing Atmospheric mass density...
Loading historical data...
Loading historical data...
Loading historical data...
Loading historical data...
Loading historical data...
Loading historical data...
Loading historical data...

Documentation

Showing up to 5 results
|